When you browse on this site, cookies collect data to enhance your experience and personalize the content and advertising you see.
Visit our Privacy Policy to learn more. By continuing to use the site, you agree to this use of cookies and data.
EN

Hourly Weather Golden Sands

Today, 4 August, Tuesday

Time Temperature Precipitation Wind Pressure Humidity
00:00 +21°C° 0 mm 4 mps 758 mmHg 80%
01:00 +21°C° 0 mm 4 mps 758 mmHg 80%
02:00 +21°C° 0 mm 4 mps 758 mmHg 79%
03:00 +21°C° 0 mm 4 mps 758 mmHg 79%
04:00 +20°C° 0 mm 5 mps 758 mmHg 79%
05:00 +20°C° 0 mm 5 mps 758 mmHg 79%
06:00 +22°C° 0 mm 5 mps 758 mmHg 71%
07:00 +25°C° 0 mm 5 mps 758 mmHg 63%
08:00 +26°C° 0 mm 6 mps 758 mmHg 55%
09:00 +27°C° 0 mm 5 mps 758 mmHg 53%
10:00 +28°C° 0 mm 5 mps 758 mmHg 51%
11:00 +29°C° 0 mm 5 mps 758 mmHg 48%
12:00 +29°C° 0 mm 5 mps 758 mmHg 48%
13:00 +29°C° 0 mm 5 mps 758 mmHg 48%
14:00 +29°C° 0 mm 5 mps 758 mmHg 48%
15:00 +28°C° 0 mm 5 mps 757 mmHg 50%
16:00 +28°C° 0 mm 5 mps 757 mmHg 53%
17:00 +27°C° 0 mm 5 mps 757 mmHg 56%
18:00 +26°C° 0 mm 5 mps 757 mmHg 63%
19:00 +23°C° 0 mm 5 mps 757 mmHg 71%
20:00 +21°C° 0 mm 5 mps 757 mmHg 79%
21:00 +21°C° 0 mm 5 mps 757 mmHg 81%
22:00 +21°C° 0 mm 5 mps 757 mmHg 84%
23:00 +21°C° 0 mm 5 mps 757 mmHg 87%

Tomorrow, 5 August, Wednesday

Time Temperature Precipitation Wind Pressure Humidity
00:00 +21°C° 0 mm 5 mps 757 mmHg 86%
01:00 +21°C° 0 mm 5 mps 757 mmHg 86%
02:00 +21°C° 0 mm 4 mps 757 mmHg 85%
03:00 +21°C° 0 mm 5 mps 757 mmHg 85%
04:00 +20°C° 0 mm 5 mps 757 mmHg 85%
05:00 +20°C° 0 mm 5 mps 757 mmHg 85%
06:00 +22°C° 0 mm 5 mps 757 mmHg 76%
07:00 +25°C° 0 mm 5 mps 757 mmHg 66%
08:00 +27°C° 0 mm 5 mps 757 mmHg 57%
09:00 +28°C° 0 mm 6 mps 757 mmHg 53%
10:00 +29°C° 0 mm 6 mps 757 mmHg 49%
11:00 +30°C° 0 mm 7 mps 758 mmHg 46%
12:00 +30°C° 0 mm 7 mps 757 mmHg 45%
13:00 +30°C° 0 mm 7 mps 757 mmHg 45%
14:00 +32°C° 0 mm 7 mps 757 mmHg 45%
15:00 +30°C° 0 mm 7 mps 757 mmHg 47%
16:00 +30°C° 0 mm 7 mps 757 mmHg 48%
17:00 +29°C° 0 mm 7 mps 757 mmHg 50%
18:00 +27°C° 0 mm 7 mps 757 mmHg 59%
19:00 +26°C° 0 mm 6 mps 757 mmHg 68%
20:00 +23°C° 0 mm 6 mps 757 mmHg 77%
21:00 +23°C° 0 mm 6 mps 757 mmHg 80%
22:00 +22°C° 0 mm 6 mps 758 mmHg 82%
23:00 +22°C° 0 mm 6 mps 758 mmHg 84%

Day after tomorrow, 6 August, Thursday

Time Temperature Precipitation Wind Pressure Humidity
00:00 +22°C° 0 mm 6 mps 758 mmHg 83%
01:00 +22°C° 0 mm 6 mps 757 mmHg 83%
02:00 +22°C° 0 mm 6 mps 757 mmHg 82%
03:00 +22°C° 0 mm 7 mps 757 mmHg 81%
04:00 +22°C° 0 mm 7 mps 757 mmHg 81%
05:00 +21°C° 0 mm 7 mps 758 mmHg 80%
06:00 +23°C° 0 mm 7 mps 758 mmHg 71%
07:00 +26°C° 0 mm 7 mps 758 mmHg 62%
08:00 +28°C° 0 mm 7 mps 758 mmHg 53%
09:00 +29°C° 0 mm 8 mps 758 mmHg 51%
10:00 +31°C° 0 mm 8 mps 759 mmHg 49%
11:00 +31°C° 0 mm 8 mps 759 mmHg 46%
12:00 +31°C° 0 mm 8 mps 759 mmHg 47%
13:00 +32°C° 0 mm 8 mps 759 mmHg 47%
14:00 +32°C° 0 mm 8 mps 759 mmHg 48%
15:00 +31°C° 0 mm 9 mps 759 mmHg 51%
16:00 +29°C° 0 mm 9 mps 759 mmHg 55%
17:00 +29°C° 0 mm 9 mps 759 mmHg 58%
18:00 +27°C° 0 mm 9 mps 759 mmHg 65%
19:00 +26°C° 0 mm 9 mps 759 mmHg 73%
20:00 +24°C° 0 mm 8 mps 759 mmHg 80%
21:00 +24°C° 0 mm 8 mps 759 mmHg 81%
22:00 +23°C° 0 mm 8 mps 759 mmHg 83%
23:00 +23°C° 0 mm 7 mps 759 mmHg 85%

7 August, Friday

Time Temperature Precipitation Wind Pressure Humidity
00:00 +23°C° 0 mm 7 mps 758 mmHg 86%
01:00 +23°C° 0 mm 7 mps 758 mmHg 87%
02:00 +23°C° 0 mm 7 mps 758 mmHg 88%
03:00 +23°C° 0 mm 8 mps 758 mmHg 88%
04:00 +23°C° 0 mm 8 mps 758 mmHg 88%
05:00 +23°C° 0 mm 8 mps 758 mmHg 87%
06:00 +26°C° 0 mm 9 mps 758 mmHg 78%
07:00 +28°C° 0 mm 9 mps 758 mmHg 68%
08:00 +31°C° 0 mm 10 mps 758 mmHg 59%
09:00 +32°C° 0 mm 10 mps 758 mmHg 55%
10:00 +33°C° 0 mm 10 mps 758 mmHg 50%
11:00 +34°C° 0 mm 10 mps 758 mmHg 46%
12:00 +34°C° 0 mm 10 mps 758 mmHg 47%
13:00 +34°C° 0 mm 10 mps 757 mmHg 47%
14:00 +34°C° 0 mm 11 mps 757 mmHg 47%
15:00 +33°C° 0 mm 11 mps 757 mmHg 49%
16:00 +33°C° 0 mm 11 mps 757 mmHg 50%
17:00 +32°C° 0 mm 11 mps 757 mmHg 52%
18:00 +31°C° 0 mm 11 mps 757 mmHg 58%
19:00 +29°C° 0 mm 10 mps 757 mmHg 65%
20:00 +27°C° 0 mm 10 mps 757 mmHg 71%
21:00 +27°C° 0 mm 9 mps 757 mmHg 73%
22:00 +27°C° 0 mm 9 mps 757 mmHg 75%
23:00 +27°C° 0 mm 8 mps 757 mmHg 76%

8 August, Saturday

Time Temperature Precipitation Wind Pressure Humidity
00:00 +27°C° 0 mm 8 mps 757 mmHg 77%
01:00 +26°C° 0 mm 8 mps 756 mmHg 77%
02:00 +26°C° 0 mm 9 mps 756 mmHg 78%
03:00 +26°C° 0 mm 9 mps 756 mmHg 77%
04:00 +26°C° 0 mm 9 mps 756 mmHg 77%
05:00 +26°C° 0 mm 9 mps 756 mmHg 76%
06:00 +27°C° 0 mm 9 mps 756 mmHg 68%
07:00 +29°C° 0 mm 10 mps 756 mmHg 61%
08:00 +31°C° 0 mm 10 mps 756 mmHg 54%
09:00 +32°C° 0 mm 10 mps 756 mmHg 49%
10:00 +33°C° 0 mm 11 mps 756 mmHg 44%
11:00 +34°C° 0 mm 11 mps 756 mmHg 39%
12:00 +34°C° 0 mm 11 mps 756 mmHg 40%
13:00 +33°C° 0 mm 11 mps 756 mmHg 40%
14:00 +33°C° 0 mm 11 mps 756 mmHg 40%
15:00 +33°C° 0 mm 10 mps 755 mmHg 41%
16:00 +32°C° 0 mm 10 mps 755 mmHg 43%
17:00 +32°C° 0 mm 10 mps 755 mmHg 44%
18:00 +29°C° 0 mm 9 mps 755 mmHg 50%
19:00 +28°C° 0 mm 8 mps 755 mmHg 57%
20:00 +26°C° 0 mm 8 mps 755 mmHg 63%
21:00 +26°C° 0 mm 8 mps 755 mmHg 67%
22:00 +26°C° 0 mm 8 mps 755 mmHg 70%
23:00 +24°C° 0 mm 7 mps 755 mmHg 73%

9 August, Sunday

Time Temperature Precipitation Wind Pressure Humidity
00:00 +24°C° 0 mm 8 mps 755 mmHg 71%
01:00 +24°C° 0 mm 8 mps 755 mmHg 68%
02:00 +24°C° 0 mm 9 mps 755 mmHg 65%
03:00 +23°C° 0 mm 9 mps 754 mmHg 64%
04:00 +23°C° 0 mm 10 mps 754 mmHg 64%
05:00 +22°C° 0 mm 10 mps 754 mmHg 63%
06:00 +23°C° 0.1 mm 10 mps 755 mmHg 61%
07:00 +24°C° 0.1 mm 10 mps 755 mmHg 59%
08:00 +26°C° 0.1 mm 10 mps 755 mmHg 56%
09:00 +28°C° 0.1 mm 9 mps 755 mmHg 52%
10:00 +29°C° 0.1 mm 9 mps 755 mmHg 49%
11:00 +32°C° 0.1 mm 9 mps 755 mmHg 45%
12:00 +32°C° 0 mm 9 mps 755 mmHg 44%
13:00 +33°C° 0 mm 9 mps 755 mmHg 43%
14:00 +33°C° 0 mm 9 mps 755 mmHg 42%
15:00 +32°C° 0 mm 8 mps 755 mmHg 44%
16:00 +32°C° 0 mm 8 mps 754 mmHg 47%
17:00 +30°C° 0 mm 7 mps 754 mmHg 50%
18:00 +28°C° 0 mm 6 mps 755 mmHg 56%
19:00 +26°C° 0 mm 5 mps 755 mmHg 62%
20:00 +25°C° 0 mm 4 mps 755 mmHg 69%
21:00 +23°C° 0 mm 4 mps 755 mmHg 68%
22:00 +23°C° 0 mm 4 mps 755 mmHg 67%
23:00 +23°C° 0 mm 4 mps 756 mmHg 67%
Show more